#timestamp,LO_Frequency,Hit,StdDev 
1626814815.2,286046999.8,N
1626814835.9,286047002.5,N
1626814855.7,286047002.6,N
1626814875.6,286047002.8,N
1626814895.4,286046999.9,N
1626814915.2,286047000.1,N
1626814935.1,286047002.7,N
1626814936.0,286047002.7,N
1626814955.8,286046999.9,N
1626814975.7,286046999.9,N
1626814995.5,286047000.0,N
1626815015.3,286047000.1,N
1626815035.2,286046999.9,N
1626815055.9,286047000.3,N
1626815075.7,286047002.2,N
1626815095.6,286047001.5,N
1626815115.4,286047004.4,Y
1626815135.3,286047004.0,P
1626815155.1,286047001.9,N
1626815156.0,286047001.9,N
1626815175.8,286047001.4,N
1626815195.7,286047001.4,N
1626815215.5,286047004.4,Y
1626815235.4,286047002.3,P
1626815255.2,286047001.8,P
1626815275.0,286047004.0,P
1626815275.9,286047004.0,Y
1626815295.8,286046998.1,P
1626815315.6,286046998.7,N
1626815335.4,286046998.7,N
1626815355.3,286046998.4,N
1626815375.1,286046999.0,N
1626815395.9,286047000.0,N
1626815415.7,286047000.6,N
1626815435.5,286047000.8,N
1626815455.4,286046999.0,N
1626815475.2,286046999.0,N
1626815495.1,286046998.8,N
1626815496.0,286046998.8,N
1626815515.8,286046998.9,N
1626815535.6,286046999.6,N
1626815555.5,286046998.1,N
1626815575.3,286047000.0,N
1626815595.1,286047001.0,N
1626815615.9,286047000.7,N
1626815635.7,286046998.1,N
1626815655.6,286046998.2,N
1626815675.4,286046998.4,N
1626815695.2,286047000.6,N
1626815715.1,286046998.1,N
1626815716.0,286046998.1,N
1626815735.8,286047000.9,N
1626815755.7,286046998.3,N
1626815775.5,286047001.0,N
1626815795.3,286046999.7,N
1626815815.2,286047001.5,N
1626815835.0,286047001.7,N
1626815835.9,286047001.7,N
1626815855.7,286047004.4,Y
1626815875.6,286047003.2,P
1626815895.4,286047005.5,N
1626815915.3,286047005.6,N
1626815935.1,286047004.9,N
1626815936.0,286047004.9,N
1626815955.8,286047005.0,N
1626815975.7,286047007.0,Y
1626815995.5,286047003.1,P
1626816015.4,286047005.3,P
1626816035.2,286047005.6,P
1626816055.0,286047005.4,Y
1626816055.9,286047005.4,P
1626816075.8,286047000.0,N
1626816095.6,286046999.9,N
1626816115.5,286047000.4,N
1626816135.3,286047000.6,N
1626816155.1,286047002.5,N
1626816175.9,286047001.6,N
1626816195.7,286047001.7,N
1626816215.6,286047001.4,N
1626816235.4,286047002.5,N
1626816255.2,286047002.7,N
1626816275.1,286047002.2,N
1626816276.0,286047002.2,N
1626816295.8,286047000.0,N
1626816315.7,286047000.1,N
1626816335.5,286047001.8,N
1626816355.3,286047004.2,N
1626816375.2,286047003.7,N
1626816395.0,286047005.7,Y
1626816395.9,286047005.7,P
1626816415.8,286047002.8,N
1626816435.6,286046999.7,N
1626816455.4,286047000.1,N
1626816475.3,286047001.0,N
1626816495.1,286046998.7,N
1626816515.9,286046998.1,N
1626816535.7,286047002.4,N
1626816555.5,286047000.1,N
1626816575.4,286046999.7,N
1626816595.2,286047000.4,N
1626816615.0,286047001.1,N
1626816616.0,286047001.1,N
1626816635.8,286046998.6,N
1626816655.6,286047002.6,N
1626816675.5,286047000.8,N
1626816695.3,286047001.0,N
1626816715.1,286047001.1,N
1626816735.9,286046998.9,N
1626816755.7,286046997.0,N
1626816775.6,286046997.9,N
1626816795.4,286046999.1,N
1626816815.2,286046999.5,N
1626816835.1,286046996.9,N
1626816836.0,286046996.9,N
1626816855.8,286046995.3,N
1626816875.7,286046996.4,N
1626816895.5,286046996.3,N
1626816915.3,286046995.9,N
1626816935.2,286046996.3,N
1626816955.0,286046993.5,N
1626816955.9,286046993.5,N
1626816975.8,286046993.9,N
1626816995.6,286046993.4,N
1626817015.4,286046996.0,N
1626817035.3,286046995.2,N
1626817055.1,286046995.6,N
1626817075.8,286046993.3,N
1626817095.7,286046993.5,N
1626817115.5,286046993.9,N
1626817135.4,286046994.7,N
1626817155.2,286046992.5,N
1626817175.0,286046994.8,N
1626817175.9,286046994.8,N
1626817195.8,286046992.6,N
1626817215.6,286046991.9,Y
1626817235.5,286046997.1,P
1626817255.3,286046997.8,P
1626817275.1,286046995.0,P
1626817295.9,286046995.5,Y
1626817315.7,286046996.7,P
1626817335.6,286046997.0,P
1626817355.4,286046994.9,P
1626817375.2,286046996.0,Y
1626817395.1,286047000.9,P
1626817396.0,286047000.9,N
1626817415.8,286047000.4,N
1626817435.7,286047001.0,N
1626817455.5,286047000.6,N
1626817475.3,286046998.2,N
1626817495.2,286046999.9,N
1626817515.9,286047000.0,N
1626817535.7,286047000.9,N
1626817555.6,286046999.4,N
1626817575.4,286046999.0,N
1626817595.3,286046998.6,N
1626817615.1,286046998.4,N
1626817616.0,286046998.4,N
1626817635.8,286046999.4,N
1626817655.7,286046999.1,N
1626817675.5,286046999.1,N
1626817695.3,286046998.3,N
1626817715.2,286047000.6,N
1626817735.0,286046998.7,N
1626817735.9,286046998.7,N
1626817755.8,286046999.2,N
1626817775.6,286046999.4,N
1626817795.4,286046998.8,N
1626817815.3,286047000.6,N
1626817835.1,286047001.2,N
1626817855.9,286047000.9,N
1626817875.7,286046998.4,N
1626817895.5,286046996.6,N
1626817915.4,286046994.9,Y
1626817935.2,286046996.8,P
1626817955.0,286047001.1,N
1626817955.9,286047001.1,N
1626817975.8,286047000.0,N
1626817995.6,286046998.8,N
1626818015.5,286046998.5,N
1626818035.3,286047000.9,N
1626818055.1,286046998.9,N
1626818075.9,286046998.7,N
1626818095.7,286046996.7,N
1626818115.5,286046999.4,N
1626818135.4,286047000.8,N
1626818155.2,286046998.8,N
1626818175.1,286047000.7,N
1626818176.0,286047000.7,N
1626818195.8,286046998.2,N
1626818215.6,286047000.6,N
1626818235.5,286047002.8,N
1626818255.3,286046999.8,N
1626818275.1,286047000.5,N
1626818295.9,286047002.8,N
1626818315.7,286047002.3,N
1626818335.6,286047000.9,N
1626818355.4,286047000.9,N
1626818375.2,286046999.9,N
1626818395.1,286047000.2,N
1626818396.0,286047000.2,N
